Weather History for KEBG - January, 2013

Change the Weather History Date:

Sunday, January 13, 2013

  Actual Average (KMFE) Record (KMFE)
Temperature  
Mean Temperature 66 °F 60 °F  
Max Temperature 76 °F 71 °F 90 °F (1950)
Min Temperature 56 °F 50 °F 25 °F (1910)
Degree Days  
Heating Degree Days 0 6  
Month to date heating degree days 89  
Since 1 July heating degree days 326  
Cooling Degree Days 1 2  
Month to date cooling degree days 26  
Year to date cooling degree days 26  
Growing Degree Days 16 (Base 50)    
Moisture  
Dew Point 42 °F    
Average Humidity 50    
Maximum Humidity 87    
Minimum Humidity 27    
Precipitation  
Precipitation 0.00 in 0.03 in 1.17 in (1987)
Month to date precipitation 0.43  
Year to date precipitation 0.43  
Sea Level Pressure  
Sea Level Pressure 29.97 in    
Wind  
Wind Speed 14 mph (NNW)    
Max Wind Speed 29 mph    
Max Gust Speed 37 mph    
Visibility 8 miles    
Events      
T = Trace of Precipitation, MM = Missing Value Source: NWS Daily Summary

Daily Weather History Graph

Daily Weather History Graph

Search for Another Location

Airport or City:

Trip Planner

Search our weather history database for the weather conditions in past years. The results will help you decide how hot, cold, wet, or windy it might be!

Date:

Astronomy

Jan. 13, 2013 Rise Set
Actual Time 7:22 AM CST 6:00 PM CST
Civil Twilight 6:57 AM CST 6:25 PM CST
Nautical Twilight 6:28 AM CST 6:54 PM CST
Astronomical Twilight 6:00 AM CST 7:22 PM CST
Moon 8:37 AM CST (1/13) 8:22 PM CST (1/13)
Length of Visible Light 11h 28m
Length of Day
10h 38m
Waxing Crescent, 5% of the Moon is Illuminated
Jan 13
Waxing Crescent
Jan 18
First Quarter
Jan 26
Full
Feb 3
Last Quarter
Feb 10
New

Hourly Weather History & Observations

Time (CST) Temp. Dew Point Humidity Pressure Visibility Wind Dir Wind Speed Gust Speed Precip Events Conditions
12:15 AM 76.1 °F 69.6 °F 80% 29.70 in 5.0 mi South 11.5 mph - N/A   Haze
12:35 AM 76.1 °F 69.6 °F 80% 29.70 in 7.0 mi SSE 10.4 mph - N/A   Overcast
12:55 AM 75.7 °F 69.4 °F 81% 29.71 in 7.0 mi SSE 10.4 mph - N/A   Mostly Cloudy
1:15 AM 75.7 °F 69.4 °F 81% 29.71 in 5.0 mi South 9.2 mph - N/A   Haze
1:35 AM 75.4 °F 69.4 °F 82% 29.72 in 4.0 mi South 6.9 mph - N/A   Haze
1:55 AM 75.0 °F 69.4 °F 83% 29.72 in 5.0 mi South 5.8 mph - N/A   Haze
2:15 AM 74.7 °F 69.3 °F 83% 29.72 in 5.0 mi South 4.6 mph - N/A   Haze
2:35 AM 74.3 °F 69.4 °F 85% 29.73 in 4.0 mi South 5.8 mph - N/A   Scattered Clouds
2:55 AM 74.7 °F 69.6 °F 84% 29.74 in 4.0 mi SSW 4.6 mph - N/A   Haze
3:15 AM 73.4 °F 68.2 °F 84% 29.75 in 4.0 mi WNW 16.1 mph 20.7 mph N/A   Haze
3:35 AM 70.7 °F 65.7 °F 84% 29.76 in 5.0 mi NW 16.1 mph 24.2 mph N/A   Haze
3:55 AM 69.1 °F 64.9 °F 87% 29.77 in 4.0 mi NW 19.6 mph 27.6 mph N/A   Overcast
4:15 AM 67.6 °F 63.5 °F 87% 29.78 in 4.0 mi NW 21.9 mph 27.6 mph N/A   Overcast
4:35 AM 66.7 °F 61.2 °F 82% 29.79 in 5.0 mi NW 23.0 mph 26.5 mph N/A   Haze
4:55 AM 65.3 °F 58.1 °F 77% 29.81 in 5.0 mi NNW 27.6 mph 34.5 mph N/A   Haze
5:15 AM 62.8 °F 53.8 °F 72% 29.83 in 7.0 mi NNW 28.8 mph 35.7 mph N/A   Overcast
5:35 AM 61.9 °F 52.0 °F 70% 29.85 in 7.0 mi North 27.6 mph 36.8 mph N/A   Overcast
5:55 AM 61.5 °F 51.8 °F 70% 29.87 in 7.0 mi North 19.6 mph 32.2 mph N/A   Overcast
6:15 AM 61.0 °F 50.9 °F 69% 29.88 in 7.0 mi North 21.9 mph 28.8 mph N/A   Overcast
6:35 AM 60.8 °F 50.0 °F 68% 29.90 in 7.0 mi North 24.2 mph 33.4 mph N/A   Overcast
6:55 AM 59.9 °F 47.7 °F 64% 29.92 in 7.0 mi NNW 25.3 mph 34.5 mph N/A   Overcast
7:15 AM 59.9 °F 46.6 °F 61% 29.94 in 10.0 mi North 20.7 mph 29.9 mph N/A   Overcast
7:35 AM 59.9 °F 45.7 °F 59% 29.96 in 7.0 mi NNW 19.6 mph 31.1 mph N/A   Overcast
7:55 AM 59.9 °F 44.6 °F 57% 29.98 in 7.0 mi NNW 15.0 mph 20.7 mph N/A   Overcast
8:15 AM 59.9 °F 42.4 °F 52% 29.99 in 7.0 mi NNW 18.4 mph 27.6 mph N/A   Overcast
8:35 AM 59.7 °F 38.8 °F 46% 30.01 in 7.0 mi NNW 21.9 mph 33.4 mph N/A   Overcast
8:55 AM 59.9 °F 38.5 °F 45% 30.03 in 10.0 mi North 18.4 mph 26.5 mph N/A   Overcast
9:15 AM 59.9 °F 37.9 °F 44% 30.05 in 10.0 mi NNW 15.0 mph 23.0 mph N/A   Overcast
9:35 AM 59.9 °F 37.6 °F 44% 30.05 in 10.0 mi NNW 15.0 mph - N/A   Overcast
9:55 AM 59.9 °F 35.8 °F 41% 30.06 in 10.0 mi NNW 21.9 mph 28.8 mph N/A   Overcast
10:15 AM 59.9 °F 37.2 °F 43% 30.07 in 10.0 mi NNW 17.3 mph - N/A   Overcast
11:15 AM 59.9 °F 33.8 °F 38% 30.08 in 10.0 mi NNW 20.7 mph 26.5 mph N/A   Overcast
11:35 AM 59.9 °F 32.4 °F 35% 30.07 in 10.0 mi NNW 19.6 mph 26.5 mph N/A   Overcast
11:55 AM 60.3 °F 32.2 °F 35% 30.07 in 10.0 mi North 19.6 mph 24.2 mph N/A   Mostly Cloudy
12:15 PM 60.1 °F 32.0 °F 35% 30.06 in 10.0 mi NNW 15.0 mph - N/A   Mostly Cloudy
12:35 PM 60.1 °F 32.0 °F 35% 30.05 in 10.0 mi NNW 16.1 mph 21.9 mph N/A   Scattered Clouds
12:55 PM 60.3 °F 32.0 °F 34% 30.05 in 10.0 mi NNW 12.7 mph 18.4 mph N/A   Clear
1:15 PM 60.6 °F 31.3 °F 33% 30.05 in 10.0 mi NNW 19.6 mph 23.0 mph N/A   Clear
1:35 PM 61.2 °F 31.1 °F 32% 30.05 in 10.0 mi NNW 15.0 mph - N/A   Scattered Clouds
1:55 PM 62.2 °F 30.6 °F 30% 30.05 in 10.0 mi NNW 13.8 mph 20.7 mph N/A   Mostly Cloudy
2:15 PM 62.1 °F 30.0 °F 30% 30.04 in 10.0 mi North 13.8 mph 19.6 mph N/A   Mostly Cloudy
2:35 PM 62.6 °F 30.9 °F 30% 30.05 in 10.0 mi NNW 9.2 mph - N/A   Scattered Clouds
3:15 PM 62.8 °F 31.1 °F 30% 30.04 in 10.0 mi NNW 12.7 mph - N/A   Clear
3:35 PM 63.1 °F 29.5 °F 28% 30.05 in 10.0 mi North 17.3 mph - N/A   Clear
3:55 PM 62.8 °F 29.7 °F 29% 30.05 in 10.0 mi North 10.4 mph - N/A   Clear
4:15 PM 62.4 °F 27.7 °F 27% 30.05 in 10.0 mi North 10.4 mph - N/A   Clear
4:35 PM 62.1 °F 28.0 °F 28% 30.04 in 10.0 mi North 12.7 mph - N/A   Clear
4:55 PM 61.7 °F 28.8 °F 29% 30.05 in 10.0 mi NNW 11.5 mph - N/A   Clear
5:15 PM 61.3 °F 28.6 °F 29% 30.06 in 10.0 mi North 9.2 mph - N/A   Clear
5:35 PM 60.8 °F 28.2 °F 29% 30.06 in 10.0 mi North 11.5 mph - N/A   Clear
5:55 PM 60.3 °F 29.3 °F 31% 30.07 in 10.0 mi North 6.9 mph - N/A   Clear
6:15 PM 60.1 °F 29.1 °F 31% 30.07 in 10.0 mi North 10.4 mph - N/A   Clear
6:35 PM 59.7 °F 30.0 °F 32% 30.07 in 10.0 mi North 8.1 mph - N/A   Clear
6:55 PM 58.3 °F 31.6 °F 36% 30.07 in 10.0 mi NNW 4.6 mph - N/A   Clear
7:15 PM 58.1 °F 32.5 °F 38% 30.07 in 10.0 mi NNW 4.6 mph - N/A   Scattered Clouds
7:35 PM 57.6 °F 32.7 °F 39% 30.08 in 10.0 mi NW 5.8 mph - N/A   Mostly Cloudy
7:55 PM 58.1 °F 32.2 °F 38% 30.09 in 10.0 mi NNW 8.1 mph - N/A   Mostly Cloudy
8:15 PM 58.6 °F 31.6 °F 36% 30.08 in 10.0 mi NNW 8.1 mph - N/A   Overcast
8:35 PM 58.5 °F 31.6 °F 36% 30.09 in 10.0 mi NNW 9.2 mph - N/A   Overcast
8:55 PM 58.8 °F 31.1 °F 35% 30.08 in 10.0 mi North 9.2 mph - N/A   Overcast
9:15 PM 58.5 °F 31.3 °F 36% 30.08 in 10.0 mi NNW 9.2 mph - N/A   Overcast
9:35 PM 58.5 °F 31.3 °F 36% 30.08 in 10.0 mi North 9.2 mph - N/A   Overcast
9:55 PM 58.3 °F 31.5 °F 36% 30.08 in 10.0 mi North 8.1 mph - N/A   Overcast
10:35 PM 57.7 °F 32.7 °F 39% 30.08 in 10.0 mi North 9.2 mph - N/A   Overcast
10:55 PM 57.6 °F 32.7 °F 39% 30.08 in 10.0 mi NNE 9.2 mph - N/A   Mostly Cloudy
11:35 PM 56.7 °F 34.0 °F 42% 30.09 in 7.0 mi NE 9.2 mph - N/A   Scattered Clouds
11:55 PM 56.5 °F 34.5 °F 44% 30.09 in 10.0 mi NNE 10.4 mph - N/A   Mostly Cloudy